Location: Bay Harbour
(38.2612°N, 75.2555°W)
Time: 23:37:43
(UTC+00:00)

Cosmos 1892 - Pass Details

Date: 29 October 2020
Orbit: 504 x 524 km, 82.5° (Epoch: 03 December)

Event Time Altitude Azimuth Distance (km) Brightness Sun altitude
Rises 23:15:56 0° 353° (N) 2,664 6.3 -14.6°
Reaches altitude 10° 23:18:05 10° 354° (N) 1,771 5.4 -15.0°
Maximum altitude 23:21:59 85° 84° (E) 532 2.6 -15.8°
Drops below altitude 10° 23:25:50 10° 172° (S) 1,755 5.4 -16.5°
Sets 23:27:57 0° 173° (S) 2,637 6.3 -16.9°
